Weather in Culebra

Puerto Rico     18°19′09″N   65°16′55″W
temp.,
°C
wind,
m/s
gust,
m/s
humid.,
%
clouds,
%
prec.,
mm/h
press.,
hPa
HPBL,
m
21 april, wed
wed2123:00+26e78741 0.0 1019995
02:00+26e88723 1.6 10171106
05:00+26e1010693 1.9 10171190
08:00+26e9107015 1.9 10181281
11:00+26e89716 0.0 10191139
14:00+27e89700 0.1 10171150
17:00+26e78744 0.0 1016987
20:00+27e88725 0.0 10171019
22 april, thu
thu2223:00+26e897624 0.1 1018991
02:00+26e99745 0.3 10161001
05:00+26e99755 0.4 1015982
08:00+26e910704 1.0 10171108
11:00+26e787396 0.0 10181017
14:00+26e667584 0.0 1016855
17:00+27e6670100 0.0 1015922
20:00+26e667494 0.1 1016878
23 april, fri
fri2323:00+26e66755 0.9 1016778
02:00+26ese55741 0.9 1015853
05:00+26ese457569 0.4 1015541
08:00+26ese787784 3.4 1017639
11:00+27ese78714 1.1 10171059
14:00+26ese667411 2.4 1016825
17:00+27e66700 0.1 1015929
20:00+27e77741 0.1 1016916
24 april, sat
sat2423:00+26e77690 0.0 1017970
02:00+26ene77680 0.0 1015966
05:00+26e77720 0.0 10151043
08:00+26e78674 0.0 10171105
11:00+26e78751 0.3 1018889
14:00+26e67671 0.4 1016887
17:00+26e67701 0.0 10151031
20:00+26ene88730 0.1 10161030
25 april, sun
sun2523:00+26e89660 0.0 10171132
02:00+26e89740 0.1 10151031
05:00+26e89752 0.4 1015989
08:00+26e99734 0.9 10161135
11:00+26ese89758 0.3 1017997
14:00+26e88680 0.4 10151028
17:00+26e77690 0.0 10141014
20:00+26e78680 0.0 10161029